Tracking 19846 objects as of 18-Sep-2019
HD Live streaming from Space Station
objects crossing your sky now

IRIDIUM 39

Track IRIDIUM 39 now!
10-day predictions
IRIDIUM 39 is classified as:


NORAD ID: 25042
Int'l Code: 1997-069D
Perigee: 729.7 km
Apogee: 759.9 km
Inclination: 86.4 °
Period: 99.6 minutes
Semi major axis: 7115 km
RCS: 4.3221 m2 (large)
Launch date: November 9, 1997
Source: United States (US)
Launch site: AIR FORCE WESTERN TEST RANGE (AFWTR)
aabbcc
Your satellite tracking list
Your tracking list is empty




NASA's NSSDC Master Catalog

Two Line Element Set (TLE):
1 25042U 97069D   19261.42911487  .00000129  00000-0  30131-4 0  9993
2 25042  86.3954  27.9517 0021245  95.1493 265.2135 14.46331005145715
Source of the keplerian elements: AFSPC